Lid_Strength_Index
5 5 4 4 4 7 8 8 7 7 6 1 1 1 2 2 2 2 3 3 4 5
7 6 5 4 4 6 8 9 9 9 6 5 1 2 2 2 2 2 3 3 5 6
9 9 9 5 5 5 7 8 9 9 9 7 2 2 3 2 2 3 2 3 5 6
11 11 10 9 6 5 6 8 9 10 10 9 7 3 3 3 4 4 3 4 5 7
12 12 11 11 9 7 6 8 9 10 11 10 8 3 3 4 3 4 4 4 5 6
14 14 13 12 11 9 9 9 9 10 11 11 10 8 3 4 4 3 3 4 4 5
14 14 14 13 13 12 12 12 9 10 11 11 11 10 4 4 5 3 3 5 5 5
15 15 14 14 14 13 12 12 11 11 11 11 11 10 4 5 5 4 4 4 5 5
15 15 14 15 15 14 13 13 12 12 12 12 12 11 6 5 5 6 5 6 6 6
16 16 14 14 15 15 13 13 12 11 12 12 11 10 7 7 5 5 5 6 7 7
17 16 16 15 14 14 13 12 11 11 12 12 11 9 7 8 6 6 6 7 8 8
19 19 18 18 15 14 13 12 12 11 12 12 12 9 8 8 9 9 9 9 9 8
20 19 19 19 18 14 13 12 12 12 12 12 12 9 8 8 9 11 9 10 11 11
21 20 20 20 18 14 14 13 13 13 12 12 12 10 8 8 9 10 10 10 11 10